C/2018 N1 ( NEOWISE )

Japanese version
Home page
Updated on July 17, 2018

---------------------------------------------------------------------

* Profile

Discovery Date July 2, 2018
Magnitude 16 mag
Discoverer Near-Earth Object Wide-field Infrared Survey Explorer

* Orbital Elements

T 2018 Aug. 1.97976 TT                                  MPCW
q   1.3079121            (2000.0)            P               Q
                   Peri.  354.52019     +0.46246244     -0.82516473
                   Node   292.42971     -0.79956309     -0.54624788
e   1.0            Incl.  159.45495     -0.38318059     +0.14393200
From 19 observations 2018 June 29-July 5.

* Finding Charts

* Magnitudes Graph

        m1 = 11.0 + 5 log d + 10.0 log r

---------------------------------------------------------------------

The orbital elements are published on M.P.E.C. 2018-N18.
The charts are made with StellaNavigator Ver.10 (AstroArts).
The magnitudes graphs are made with Comet for Windows.

---------------------------------------------------------------------

Copyright(C) Seiichi Yoshida (comet@aerith.net). All rights reserved.